[[{"header":{"parameterUnit":"m.s-1","parameterCategory":2,"la1":30.2991,"la2":30.254,"lo1":-89.0895,"lo2":-89.0444,"dx":0.0017,"dy":0.0017,"nx":28,"ny":28,"refTime":"2022-12-12T03:00:00:Z","depth":"0","parameterNumber":2,"parameterNumberName":"U-component_of_CURRENTS"},"data":[0,0,0,0,0,0,0,0,0,0,0,0,0,0,0,0,0,0,0,0,0,0,0,0,0,0,0,0,0,0,0,0,0,0,0,0,0,0,0,0,0,0,0,0,0,0,0,0,0,0,0,0,0,0,0,0,0,0,-0.3225,-0.3226,0,-0.3251,-0.3251,-0.3251,-0.3214,-0.3213,-0.3212,-0.3212,-0.3176,-0.3176,-0.3176,0,0,0,0,0,0,0,0,0,0,0,0,0,-0.3088,-0.309,-0.3225,-0.3226,-0.3227,-0.3251,-0.3251,-0.3251,-0.3214,-0.3213,-0.3212,-0.3211,-0.3176,-0.3176,-0.3176,0,0,0,0,0,0,0,0,0,0,0,0,0,-0.3129,-0.3091,-0.3225,-0.3215,-0.3215,-0.3251,-0.3251,-0.3251,-0.3214,-0.3213,-0.3212,-0.3211,-0.3177,-0.3176,-0.3176,-0.3198,0,0,-0.3175,-0.3175,0,0,0,0,0,0,0,0,-0.3127,-0.3133,-0.3216,-0.3216,-0.3216,-0.3233,-0.319,-0.3232,-0.3215,-0.3209,-0.3212,-0.321,-0.3194,-0.3192,-0.3193,-0.3196,-0.3195,-0.3175,-0.3175,-0.3175,-0.3175,0,0,0,0,0,0,0,-0.3124,-0.3132,-0.3229,-0.3217,-0.3217,-0.3191,-0.3196,-0.3197,-0.3202,-0.3209,-0.3208,-0.322,-0.3193,-0.3193,-0.3192,-0.3194,-0.3175,-0.3175,-0.3175,-0.3174,-0.3232,-0.3234,0,0,0,0,0,0,-0.3137,-0.313,-0.3229,-0.3231,-0.3174,-0.3196,-0.32,-0.3224,-0.3203,-0.3201,-0.3221,-0.3219,-0.3194,-0.3192,-0.319,-0.3224,-0.3175,-0.3174,-0.3174,-0.3231,-0.3233,-0.3235,0,0,0,0,0,0,-0.3134,-0.3146,-0.3228,-0.3184,-0.3193,-0.32,-0.3227,-0.3225,-0.3228,-0.3215,-0.321,-0.3226,-0.3193,-0.3191,-0.3216,-0.3221,-0.3174,-0.3174,-0.3229,-0.3231,-0.3234,-0.3285,0,0,0,0,0,0,-0.313,-0.3145,-0.3164,-0.3186,-0.3197,-0.3265,-0.3229,-0.3227,-0.324,-0.3237,-0.3217,-0.3213,-0.3192,-0.3217,-0.3216,-0.322,-0.3174,-0.3226,-0.323,-0.3233,-0.3281,-0.3289,-0.3295,0,0,0,0,0,-0.3125,-0.3166,-0.3165,-0.3177,-0.3224,-0.3267,-0.327,-0.3265,-0.3242,-0.3258,-0.3252,-0.3213,-0.3236,-0.3219,-0.3217,-0.3221,-0.3225,-0.3229,-0.3233,-0.3278,-0.3287,-0.3295,0,0,0,0,0,0,-0.3107,-0.3168,-0.3166,-0.322,-0.3246,-0.3263,-0.3277,-0.3274,-0.3281,-0.327,-0.3245,-0.3242,-0.3263,-0.3248,-0.323,-0.325,-0.322,-0.3224,-0.3255,-0.3264,-0.3271,-0.3258,-0.3174,0,0,0,0,0,-0.3117,-0.3164,-0.3205,-0.3243,-0.3259,-0.3266,-0.328,-0.3282,-0.3294,-0.3293,-0.3283,-0.3274,-0.3279,-0.3277,-0.3279,-0.3297,-0.3236,-0.3297,-0.3304,-0.331,-0.3301,-0.3224,-0.3222,-0.3247,-0.3247,-0.3247,0,0,-0.3113,-0.3157,-0.3178,-0.3242,-0.3253,-0.3289,-0.327,-0.3301,-0.3322,-0.329,-0.3309,-0.3304,-0.3294,-0.3313,-0.3319,-0.3298,-0.3274,-0.3315,-0.332,-0.3307,-0.3227,-0.3224,-0.3221,-0.325,-0.3249,-0.3249,0,0,-0.3137,-0.3173,-0.3218,-0.325,-0.3294,-0.3308,-0.3322,-0.3347,-0.3349,-0.3385,-0.3359,-0.3358,-0.3376,-0.3356,-0.3351,-0.3402,-0.3321,-0.3409,-0.3425,-0.3351,-0.3346,-0.3342,-0.3262,-0.325,-0.3405,-0.3405,-0.3405,0,-0.3122,-0.3189,-0.3233,-0.3282,-0.3301,-0.332,-0.3351,-0.3373,-0.3401,-0.3391,-0.34,-0.3394,-0.339,-0.3381,-0.3409,-0.3412,-0.3358,-0.3389,-0.3355,-0.335,-0.3344,-0.3263,-0.3249,-0.3408,-0.3408,-0.3407,-0.3407,0,-0.3179,-0.3225,-0.3252,-0.3319,-0.3353,-0.3383,-0.3423,-0.344,-0.3445,-0.3447,-0.3449,-0.3451,-0.3431,-0.3442,-0.345,-0.3416,-0.3386,-0.3375,-0.3323,-0.3344,-0.3259,-0.3243,-0.3412,-0.3411,-0.341,-0.341,0,0,-0.3119,-0.3264,-0.3259,-0.3288,-0.3367,-0.3388,-0.3436,-0.3458,-0.3449,-0.3482,-0.3456,-0.3489,-0.3465,-0.346,-0.3451,-0.3407,-0.3339,-0.3388,-0.3383,-0.329,-0.3165,-0.3118,-0.3096,-0.3318,-0.3316,-0.3314,-0.312,0,-0.3122,-0.3218,-0.3291,-0.3339,-0.3374,-0.3415,-0.3449,-0.3472,-0.3484,-0.3471,-0.346,-0.3447,-0.348,-0.3461,-0.343,-0.3362,-0.3301,-0.3392,-0.3174,-0.3167,-0.3107,-0.3077,-0.2993,-0.281,-0.3104,-0.3101,-0.3099,0,-0.3116,-0.3185,-0.325,-0.3331,-0.3344,-0.3377,-0.3388,-0.3428,-0.3432,-0.3432,-0.3421,-0.3417,-0.3381,-0.3397,-0.3276,-0.3333,-0.3256,-0.3201,-0.3191,-0.3113,-0.3091,-0.2839,-0.277,-0.2776,-0.3075,-0.3077,-0.3078,0,-0.3009,-0.3129,-0.3175,-0.3205,-0.3314,-0.3322,-0.3362,-0.3389,-0.3382,-0.3388,-0.3355,-0.3344,-0.3291,-0.3229,-0.3167,-0.3203,-0.3008,-0.3026,-0.2901,-0.2896,-0.2762,-0.275,-0.2653,-0.2905,-0.2905,-0.2906,-0.2906,0,-0.2957,-0.2965,-0.3126,-0.3137,-0.3136,-0.3254,-0.3229,-0.3263,-0.3289,-0.3242,-0.3312,-0.3249,-0.3244,-0.316,-0.3118,-0.2959,-0.2955,-0.288,-0.2835,-0.2782,-0.2774,-0.2725,-0.2752,-0.2898,-0.29,-0.2902,-0.2903,0,-0.2772,-0.2906,-0.2933,-0.3058,-0.308,-0.3062,-0.3118,-0.3107,-0.3164,-0.3101,-0.3096,-0.3122,-0.3032,-0.3015,-0.2885,-0.285,-0.268,-0.2672,-0.2619,-0.2572,-0.2484,-0.2518,-0.2321,-0.2254,-0.2488,-0.2486,-0.2484,0,-0.2672,-0.2686,-0.2804,-0.2809,-0.2847,-0.2864,-0.2869,-0.2985,-0.2974,-0.2998,-0.294,-0.2899,-0.2837,-0.2676,-0.2622,-0.2515,-0.2528,-0.2358,-0.2419,-0.2446,-0.2449,-0.2473,-0.2433,-0.2254,-0.2251,-0.2247,-0.2245,0,-0.2436,-0.2493,-0.2524,-0.2552,-0.2574,-0.2585,-0.2618,-0.2606,-0.2725,-0.2713,-0.2683,-0.2663,-0.2571,-0.2465,-0.2374,-0.2295,-0.2322,-0.229,-0.231,-0.2248,-0.2267,-0.2192,-0.243,-0.2218,-0.222,-0.2222,-0.2224,-0.2225,-0.2213,-0.2179,-0.2257,-0.2255,-0.2289,-0.23,-0.2259,-0.2332,-0.2324,-0.2314,-0.2397,-0.2347,-0.2344,-0.2227,-0.2166,-0.2059,-0.2092,-0.2005,-0.2034,-0.2051,-0.2015,-0.2204,-0.1962,-0.1964,-0.1965,-0.1966,-0.1966,0,-0.1954,-0.1973,-0.1958,-0.1991,-0.1962,-0.206,-0.2075,-0.2043,-0.2008,-0.206,-0.2051,-0.2062,-0.1987,-0.2,-0.1934,-0.1852,-0.1817,-0.1799,-0.1822,-0.1785,-0.1923,-0.1948,-0.1701,-0.1701,-0.1701,-0.1701,-0.1701,-0.1701,-0.183,-0.1759,-0.1781,-0.1676,-0.1693,-0.162,-0.161,-0.1603,-0.1621,-0.1605,-0.1643,-0.1711,-0.1775,-0.1934,-0.1857,-0.1768,-0.1739,-0.1663,-0.1686,-0.1834,-0.1857,-0.1879,-0.1911,-0.166,-0.166,-0.1496,-0.1495,-0.1495]},{"header":{"parameterUnit":"m.s-1","parameterCategory":2,"la1":30.2991,"la2":30.254,"lo1":-89.0895,"lo2":-89.0444,"dx":0.0017,"dy":0.0017,"nx":28,"ny":28,"refTime":"2022-12-12T03:00:00:Z","depth":"0","parameterNumber":3,"parameterNumberName":"V-component_of_CURRENTS"},"data":[0,0,0,0,0,0,0,0,0,0,0,0,0,0,0,0,0,0,0,0,0,0,0,0,0,0,0,0,0,0,0,0,0,0,0,0,0,0,0,0,0,0,0,0,0,0,0,0,0,0,0,0,0,0,0,0,0,0,0.0042,0.0044,0,0.0185,0.0186,0.0188,0.0258,0.0258,0.0258,0.0258,0.0405,0.0409,0.0413,0,0,0,0,0,0,0,0,0,0,0,0,0,-0.0109,-0.0107,0.0042,0.0044,0.0046,0.0184,0.0186,0.0188,0.0258,0.0258,0.0258,0.0258,0.0404,0.0408,0.0413,0,0,0,0,0,0,0,0,0,0,0,0,0,-0.0014,-0.0106,0.0041,0.0098,0.0104,0.0184,0.0186,0.0189,0.0258,0.0258,0.0258,0.0258,0.0402,0.0408,0.0414,0.0447,0,0,0.0431,0.0434,0,0,0,0,0,0,0,0,-0.0019,-0.0008,0.0088,0.0094,0.0101,0.0204,0.0187,0.0276,0.0258,0.0199,0.0258,0.0258,0.0339,0.035,0.0375,0.0454,0.0461,0.0432,0.0435,0.0438,0.0439,0,0,0,0,0,0,0,-0.0026,-0.0014,0.0098,0.0089,0.0098,0.0137,0.015,0.0204,0.0266,0.0204,0.021,0.0227,0.0342,0.0369,0.0379,0.0463,0.0432,0.0437,0.044,0.0443,0.0596,0.0596,0,0,0,0,0,0,-0.0045,-0.002,0.0093,0.0102,0.0041,0.0139,0.0154,0.017,0.0266,0.028,0.0226,0.0229,0.036,0.0372,0.0385,0.045,0.0438,0.0443,0.0446,0.0595,0.0596,0.0596,0,0,0,0,0,0,-0.0049,-0.0036,0.0087,0.0045,0.0063,0.0141,0.016,0.0173,0.0201,0.0283,0.0297,0.0239,0.036,0.0377,0.0442,0.0456,0.0446,0.0451,0.0594,0.0595,0.0596,0.0569,0,0,0,0,0,0,-0.0054,-0.0039,-0.004,0.0043,0.0065,0.0127,0.016,0.0176,0.0211,0.0217,0.0299,0.0313,0.0361,0.0433,0.0448,0.0463,0.0456,0.0594,0.0595,0.0596,0.0569,0.0568,0.0568,0,0,0,0,0,-0.006,-0.0063,-0.0041,-0.0027,0.0063,0.0127,0.0141,0.0197,0.0211,0.0221,0.0286,0.031,0.045,0.0439,0.0456,0.0473,0.0593,0.0594,0.0596,0.0569,0.0568,0.0568,0,0,0,0,0,0,-0.0128,-0.0053,-0.0028,-0.0008,0.0051,0.0138,0.0149,0.0191,0.025,0.0251,0.0326,0.0345,0.0406,0.0442,0.0427,0.0519,0.0523,0.0527,0.0496,0.0497,0.0496,0.0488,0.046,0,0,0,0,0,-0.0144,-0.013,-0.0047,-0.0033,-0.0009,0.0068,0.0098,0.0139,0.0206,0.0231,0.0295,0.0359,0.0425,0.0461,0.0517,0.0571,0.0606,0.0591,0.059,0.059,0.0594,0.0691,0.07,0.0601,0.0601,0.0601,0,0,-0.0171,-0.0126,-0.0119,-0.0048,-0.0002,0.0037,0.0085,0.0126,0.0169,0.0238,0.0303,0.036,0.0438,0.0502,0.0532,0.0535,0.0625,0.0591,0.059,0.0595,0.0693,0.0703,0.0712,0.0602,0.0601,0.0601,0,0,-0.0214,-0.0174,-0.0176,-0.0129,-0.0061,0.0,0.0008,0.0096,0.0143,0.0216,0.0276,0.0343,0.0438,0.0505,0.0549,0.058,0.0618,0.059,0.0589,0.0683,0.0692,0.0701,0.0706,0.0716,0.0593,0.0593,0.0593,0,-0.0252,-0.023,-0.0168,-0.0149,-0.0111,-0.002,-0.0001,0.0066,0.0167,0.0213,0.0227,0.0394,0.0444,0.0551,0.0556,0.0581,0.0614,0.0584,0.0684,0.0693,0.0703,0.0707,0.0718,0.0592,0.0592,0.0592,0.0592,0,-0.0286,-0.0267,-0.0263,-0.0204,-0.0154,-0.0125,-0.002,0.0033,0.0101,0.0179,0.0291,0.0385,0.0482,0.0509,0.0543,0.0638,0.0628,0.067,0.0683,0.0711,0.0712,0.0724,0.059,0.059,0.0591,0.0591,0,0,-0.0378,-0.0304,-0.0305,-0.028,-0.0179,-0.0139,-0.0065,0.004,0.0097,0.0205,0.0295,0.041,0.0466,0.0519,0.0583,0.0664,0.073,0.0688,0.0693,0.0687,0.0882,0.0818,0.0825,0.0803,0.0806,0.0809,0.0837,0,-0.0425,-0.0413,-0.0348,-0.0315,-0.0293,-0.0182,-0.0115,-0.0009,0.0098,0.0205,0.0335,0.0435,0.0473,0.0519,0.0612,0.0713,0.077,0.0715,0.086,0.0863,0.0802,0.0841,0.088,0.0906,0.0849,0.0851,0.0852,0,-0.0481,-0.0457,-0.045,-0.0357,-0.0336,-0.0298,-0.0167,-0.0092,0.0081,0.0161,0.0296,0.0406,0.0539,0.0571,0.0758,0.0725,0.0789,0.0863,0.0867,0.0832,0.0824,0.0881,0.093,0.1084,0.0871,0.0869,0.0868,0,-0.0576,-0.0521,-0.0517,-0.049,-0.0378,-0.0347,-0.0275,-0.012,-0.0045,0.0133,0.0199,0.0396,0.0475,0.0634,0.0752,0.0775,0.0938,0.0991,0.0987,0.0979,0.1053,0.1047,0.1272,0.1118,0.1117,0.1117,0.1117,0,-0.0643,-0.0635,-0.057,-0.0567,-0.0537,-0.0433,-0.037,-0.0266,-0.0117,-0.004,0.0156,0.0242,0.0502,0.0627,0.0752,0.0876,0.0932,0.0987,0.1005,0.1034,0.1027,0.1195,0.1246,0.1118,0.1118,0.1118,0.1118,0,-0.0738,-0.0703,-0.0691,-0.0612,-0.0587,-0.0569,-0.0448,-0.0397,-0.0257,-0.0151,-0.0101,0.0132,0.029,0.05,0.0729,0.0837,0.1061,0.1002,0.0963,0.0977,0.1139,0.1184,0.1364,0.1431,0.1043,0.1042,0.1041,0,-0.078,-0.0793,-0.0748,-0.0749,-0.0718,-0.0672,-0.0637,-0.0489,-0.0429,-0.0237,-0.02,-0.0013,0.0131,0.042,0.0659,0.0871,0.0994,0.0997,0.1067,0.1155,0.1222,0.1254,0.1302,0.1133,0.1133,0.1133,0.1133,0,-0.0844,-0.0842,-0.0832,-0.0842,-0.083,-0.0798,-0.0738,-0.0709,-0.0548,-0.0452,-0.0318,-0.0185,0.0106,0.0407,0.0666,0.0794,0.111,0.0998,0.1165,0.1365,0.1349,0.1418,0.1035,0.1132,0.1133,0.1133,0.1133,0.1133,-0.0888,-0.0907,-0.0907,-0.0911,-0.0912,-0.0908,-0.0879,-0.0815,-0.073,-0.0541,-0.0437,-0.0191,0.0241,0.0649,0.0786,0.112,0.1096,0.1265,0.1319,0.1348,0.1414,0.0958,0.1029,0.1029,0.1028,0.1028,0.1028,0,-0.0916,-0.0935,-0.096,-0.0968,-0.0994,-0.0966,-0.0924,-0.087,-0.0794,-0.0596,-0.0432,0.0066,0.0477,0.0862,0.1325,0.1491,0.1558,0.1561,0.1695,0.1736,0.1426,0.1433,0.1505,0.1505,0.1505,0.1505,0.1505,0.1505,-0.0928,-0.0959,-0.0972,-0.1022,-0.1039,-0.1036,-0.1014,-0.0921,-0.0767,-0.0427,-0.0112,0.0145,0.0682,0.1432,0.1859,0.1876,0.2053,0.1989,0.2066,0.1933,0.1913,0.1893,0.1919,0.2092,0.2093,0.2403,0.2406,0.2408]}],[{"header":{"parameterUnit":"m.s-1","parameterCategory":2,"la1":30.2991,"la2":30.254,"lo1":-89.0895,"lo2":-89.0444,"dx":0.0017,"dy":0.0017,"nx":28,"ny":28,"refTime":"2022-12-12T03:00:00:Z","depth":"2","parameterNumber":2,"parameterNumberName":"U-component_of_CURRENTS"},"data":[0,0,0,0,0,0,0,0,0,0,0,0,0,0,0,0,0,0,0,0,0,0,0,0,0,0,0,0,0,0,0,0,0,0,0,0,0,0,0,0,0,0,0,0,0,0,0,0,0,0,0,0,0,0,0,0,0,0,-0.2664,-0.2665,0,-0.2698,-0.2697,-0.2697,-0.279,-0.2793,-0.2796,-0.2799,-0.2818,-0.2816,-0.2814,0,0,0,0,0,0,0,0,0,0,0,0,0,-0.2526,-0.2528,-0.2663,-0.2665,-0.2666,-0.2698,-0.2697,-0.2697,-0.279,-0.2793,-0.2797,-0.28,-0.2819,-0.2816,-0.2813,0,0,0,0,0,0,0,0,0,0,0,0,0,-0.2566,-0.2529,-0.2663,-0.2724,-0.2731,-0.2698,-0.2697,-0.2697,-0.2789,-0.2793,-0.2798,-0.2802,-0.282,-0.2816,-0.2813,-0.2703,0,0,-0.2803,-0.2801,0,0,0,0,0,0,0,0,-0.2564,-0.2569,-0.2714,-0.272,-0.2728,-0.2754,-0.2657,-0.2702,-0.2788,-0.2756,-0.2799,-0.2804,-0.2799,-0.2797,-0.2779,-0.2704,-0.2704,-0.2802,-0.28,-0.2799,-0.2798,0,0,0,0,0,0,0,-0.2561,-0.2568,-0.2666,-0.2715,-0.2724,-0.2698,-0.2709,-0.2664,-0.2743,-0.2759,-0.2768,-0.2787,-0.2802,-0.2782,-0.278,-0.2705,-0.2803,-0.2799,-0.2797,-0.2796,-0.2793,-0.2795,0,0,0,0,0,0,-0.2581,-0.2566,-0.2665,-0.2668,-0.2667,-0.2699,-0.271,-0.2732,-0.2744,-0.2754,-0.2784,-0.2792,-0.2786,-0.2784,-0.2781,-0.2855,-0.2799,-0.2796,-0.2794,-0.2791,-0.2793,-0.2796,0,0,0,0,0,0,-0.2578,-0.2589,-0.2664,-0.2626,-0.2635,-0.2699,-0.2721,-0.2731,-0.2746,-0.2765,-0.2773,-0.2795,-0.2789,-0.2786,-0.2814,-0.285,-0.2794,-0.2791,-0.2789,-0.2792,-0.2794,-0.2872,0,0,0,0,0,0,-0.2574,-0.2588,-0.2595,-0.2628,-0.2639,-0.2692,-0.2718,-0.2728,-0.2754,-0.2766,-0.2776,-0.2781,-0.2792,-0.2819,-0.2811,-0.2844,-0.2788,-0.2786,-0.279,-0.2794,-0.2867,-0.2877,-0.2886,0,0,0,0,0,-0.2568,-0.2583,-0.2594,-0.2607,-0.2652,-0.2694,-0.2696,-0.2747,-0.2751,-0.277,-0.2797,-0.2783,-0.2838,-0.2817,-0.2807,-0.284,-0.2784,-0.2789,-0.2793,-0.2863,-0.2875,-0.2886,0,0,0,0,0,0,-0.2529,-0.2595,-0.2609,-0.2643,-0.2683,-0.2716,-0.2732,-0.2742,-0.2765,-0.2781,-0.2784,-0.2792,-0.2838,-0.2817,-0.2794,-0.2855,-0.2815,-0.2817,-0.2871,-0.2882,-0.2892,-0.2855,-0.2786,0,0,0,0,0,-0.2518,-0.2562,-0.2605,-0.2641,-0.2654,-0.2679,-0.2693,-0.273,-0.2762,-0.2776,-0.279,-0.2809,-0.2833,-0.2845,-0.2857,-0.2855,-0.2789,-0.2879,-0.2888,-0.2896,-0.2863,-0.2824,-0.2826,-0.281,-0.281,-0.281,0,0,-0.2517,-0.2561,-0.2585,-0.2636,-0.266,-0.269,-0.2699,-0.2743,-0.278,-0.2767,-0.2816,-0.2833,-0.2842,-0.2886,-0.2902,-0.2879,-0.2866,-0.2902,-0.2908,-0.2869,-0.2829,-0.283,-0.283,-0.2813,-0.2812,-0.2812,0,0,-0.254,-0.2568,-0.2602,-0.2637,-0.2692,-0.2708,-0.2723,-0.2762,-0.2796,-0.2835,-0.2856,-0.2892,-0.291,-0.2937,-0.2947,-0.2996,-0.2921,-0.3015,-0.3023,-0.2989,-0.2988,-0.2987,-0.2894,-0.2884,-0.3016,-0.3017,-0.3017,0,-0.2532,-0.2579,-0.2618,-0.2657,-0.2683,-0.2718,-0.2744,-0.2777,-0.283,-0.2841,-0.288,-0.2909,-0.2935,-0.2958,-0.3013,-0.3015,-0.2957,-0.2981,-0.2997,-0.2995,-0.2992,-0.2897,-0.2885,-0.3021,-0.302,-0.302,-0.302,0,-0.2568,-0.2611,-0.2636,-0.2698,-0.2726,-0.2764,-0.2814,-0.2848,-0.2881,-0.2904,-0.2948,-0.2982,-0.2996,-0.3031,-0.3043,-0.3046,-0.2997,-0.3015,-0.296,-0.2998,-0.2896,-0.2881,-0.3027,-0.3025,-0.3024,-0.3023,0,0,-0.2531,-0.2637,-0.2648,-0.2676,-0.2747,-0.2772,-0.2833,-0.2871,-0.2891,-0.2953,-0.2959,-0.3037,-0.3034,-0.3043,-0.3058,-0.3039,-0.2999,-0.3024,-0.3021,-0.2914,-0.2868,-0.2832,-0.2812,-0.3022,-0.302,-0.3019,-0.2797,0,-0.2539,-0.2615,-0.2663,-0.2723,-0.2749,-0.2801,-0.2845,-0.2892,-0.2936,-0.2958,-0.2983,-0.3008,-0.3047,-0.3056,-0.305,-0.3018,-0.2967,-0.3053,-0.2859,-0.2851,-0.2803,-0.2798,-0.2642,-0.2432,-0.2783,-0.2781,-0.2779,0,-0.2528,-0.2588,-0.2642,-0.2723,-0.2735,-0.2776,-0.2822,-0.287,-0.2913,-0.2947,-0.2965,-0.2979,-0.2974,-0.3003,-0.2923,-0.2975,-0.2916,-0.2878,-0.2869,-0.2789,-0.2791,-0.2455,-0.2392,-0.2754,-0.2756,-0.2758,-0.2759,0,-0.2449,-0.2559,-0.2599,-0.2631,-0.2726,-0.2754,-0.2798,-0.2856,-0.2867,-0.2919,-0.2904,-0.2927,-0.2899,-0.2866,-0.2835,-0.2866,-0.2712,-0.2745,-0.2629,-0.2623,-0.2423,-0.2404,-0.2642,-0.2642,-0.2642,-0.2643,-0.2644,0,-0.2411,-0.244,-0.2574,-0.2593,-0.2612,-0.2712,-0.2715,-0.2776,-0.2823,-0.2803,-0.2874,-0.2837,-0.2863,-0.2801,-0.2783,-0.2659,-0.2668,-0.2592,-0.2566,-0.2448,-0.2435,-0.2671,-0.2678,-0.2635,-0.2636,-0.2638,-0.264,0,-0.2287,-0.2391,-0.2419,-0.2537,-0.2566,-0.2571,-0.2632,-0.2642,-0.2711,-0.268,-0.2684,-0.2722,-0.2662,-0.2656,-0.258,-0.2553,-0.2474,-0.242,-0.226,-0.2222,-0.2401,-0.2415,-0.2233,-0.223,-0.2227,-0.2225,-0.2223,0,-0.2226,-0.2237,-0.2328,-0.2337,-0.2384,-0.2419,-0.2435,-0.2551,-0.256,-0.2594,-0.2557,-0.2524,-0.2489,-0.237,-0.2338,-0.2252,-0.2343,-0.2035,-0.2088,-0.2367,-0.236,-0.2378,-0.2394,-0.1826,-0.1821,-0.1817,-0.1814,0,-0.2075,-0.2106,-0.2132,-0.2152,-0.2182,-0.2193,-0.2245,-0.2243,-0.236,-0.2357,-0.2358,-0.2347,-0.2261,-0.214,-0.2058,-0.1995,-0.2061,-0.1951,-0.2246,-0.1999,-0.1979,-0.1976,-0.2005,-0.1778,-0.1782,-0.1785,-0.1787,-0.1788,-0.1927,-0.1898,-0.1938,-0.1939,-0.1971,-0.1981,-0.1946,-0.2024,-0.2028,-0.2027,-0.2117,-0.2045,-0.2042,-0.1849,-0.1764,-0.1686,-0.1818,-0.1733,-0.1747,-0.1764,-0.1802,-0.1784,-0.1547,-0.1549,-0.1551,-0.1553,-0.1554,0,-0.1736,-0.174,-0.173,-0.1739,-0.1713,-0.1794,-0.1814,-0.1773,-0.1751,-0.1788,-0.1788,-0.1611,-0.1553,-0.1549,-0.1393,-0.1371,-0.1362,-0.1299,-0.1297,-0.1333,-0.1364,-0.1385,-0.1017,-0.1015,-0.1014,-0.1013,0,0,-0.1634,-0.1569,-0.1577,-0.149,-0.1502,-0.1428,-0.1417,-0.1394,-0.1389,-0.1319,-0.1294,-0.1435,-0.1493,-0.1254,-0.1206,-0.1089,-0.119,-0.1026,-0.1455,-0.1486,-0.1516,-0.161,-0.1681,0,0,0,0,0]},{"header":{"parameterUnit":"m.s-1","parameterCategory":2,"la1":30.2991,"la2":30.254,"lo1":-89.0895,"lo2":-89.0444,"dx":0.0017,"dy":0.0017,"nx":28,"ny":28,"refTime":"2022-12-12T03:00:00:Z","depth":"2","parameterNumber":3,"parameterNumberName":"V-component_of_CURRENTS"},"data":[0,0,0,0,0,0,0,0,0,0,0,0,0,0,0,0,0,0,0,0,0,0,0,0,0,0,0,0,0,0,0,0,0,0,0,0,0,0,0,0,0,0,0,0,0,0,0,0,0,0,0,0,0,0,0,0,0,0,-0.0221,-0.022,0,-0.0125,-0.0124,-0.0123,-0.0014,-0.0012,-0.001,-0.0009,0.0113,0.0114,0.0116,0,0,0,0,0,0,0,0,0,0,0,0,0,-0.0311,-0.031,-0.0221,-0.022,-0.0218,-0.0126,-0.0124,-0.0123,-0.0014,-0.0012,-0.001,-0.0008,0.0112,0.0114,0.0116,0,0,0,0,0,0,0,0,0,0,0,0,0,-0.0251,-0.031,-0.0221,-0.0152,-0.0145,-0.0126,-0.0124,-0.0123,-0.0015,-0.0012,-0.0009,-0.0007,0.0112,0.0114,0.0116,0.0078,0,0,0.0124,0.0125,0,0,0,0,0,0,0,0,-0.0254,-0.0248,-0.0163,-0.0157,-0.0148,-0.0078,-0.0111,-0.0054,-0.0015,-0.0066,-0.0009,-0.0006,0.005,0.0058,0.0068,0.0084,0.0089,0.0124,0.0125,0.0126,0.0127,0,0,0,0,0,0,0,-0.0259,-0.0251,-0.0185,-0.0162,-0.0153,-0.0126,-0.0115,-0.01,-0.0024,-0.0061,-0.0052,-0.0041,0.0055,0.0065,0.0072,0.0091,0.0124,0.0126,0.0127,0.0128,0.0212,0.0212,0,0,0,0,0,0,-0.027,-0.0255,-0.0188,-0.0182,-0.0194,-0.0126,-0.0114,-0.0104,-0.0025,-0.001,-0.0043,-0.0036,0.006,0.0069,0.0076,0.0137,0.0126,0.0129,0.013,0.0211,0.0212,0.0213,0,0,0,0,0,0,-0.0273,-0.0266,-0.0191,-0.0215,-0.0203,-0.0128,-0.0118,-0.0104,-0.0079,-0.0011,0.0005,-0.0031,0.0062,0.0073,0.0113,0.0139,0.013,0.0132,0.021,0.0211,0.0212,0.0194,0,0,0,0,0,0,-0.0276,-0.0267,-0.0273,-0.0216,-0.0202,-0.0174,-0.012,-0.0104,-0.0076,-0.0066,0.0004,0.0018,0.0065,0.0109,0.0116,0.0142,0.0134,0.0209,0.0211,0.0212,0.0194,0.0195,0.0195,0,0,0,0,0,-0.028,-0.0296,-0.0274,-0.0266,-0.021,-0.0174,-0.0165,-0.0103,-0.0078,-0.0072,-0.0014,0.0016,0.0124,0.0111,0.0118,0.0147,0.0208,0.021,0.0212,0.0194,0.0194,0.0195,0,0,0,0,0,0,-0.0334,-0.0285,-0.026,-0.0258,-0.0217,-0.0155,-0.0148,-0.0114,-0.0068,-0.0055,0.001,0.0027,0.0077,0.0103,0.0087,0.0177,0.0177,0.018,0.016,0.0162,0.0162,0.0128,0.0136,0,0,0,0,0,-0.0353,-0.0349,-0.0294,-0.0291,-0.0276,-0.0218,-0.02,-0.0157,-0.0107,-0.0083,-0.0028,0.003,0.0083,0.0115,0.0158,0.0187,0.0211,0.0216,0.0217,0.0217,0.0196,0.03,0.0308,0.0218,0.0218,0.0218,0,0,-0.0372,-0.0344,-0.0341,-0.0302,-0.0268,-0.0249,-0.02,-0.0172,-0.0142,-0.0082,-0.0029,0.0024,0.0089,0.0144,0.017,0.0174,0.0245,0.0219,0.0219,0.0197,0.0303,0.0312,0.032,0.022,0.0219,0.0219,0,0,-0.041,-0.0385,-0.0396,-0.0365,-0.0318,-0.0279,-0.0274,-0.0211,-0.0166,-0.0119,-0.0055,0.0012,0.0079,0.0148,0.0186,0.0207,0.0241,0.0225,0.0208,0.031,0.0319,0.0326,0.0319,0.0327,0.0233,0.0233,0.0233,0,-0.0435,-0.0434,-0.0393,-0.0388,-0.0365,-0.0296,-0.0292,-0.0244,-0.0169,-0.0133,-0.0101,0.003,0.0087,0.0167,0.0185,0.0211,0.0234,0.02,0.0312,0.032,0.0328,0.032,0.0328,0.0232,0.0232,0.0232,0.0232,0,-0.0473,-0.0468,-0.047,-0.0438,-0.0411,-0.0396,-0.0324,-0.0284,-0.0223,-0.0161,-0.0071,0.0017,0.0102,0.0139,0.0167,0.0253,0.0234,0.0296,0.0307,0.0336,0.0325,0.0334,0.0231,0.0231,0.0232,0.0232,0,0,-0.0536,-0.0506,-0.0505,-0.0494,-0.0434,-0.0413,-0.0367,-0.0299,-0.0251,-0.0163,-0.0094,0.0011,0.0068,0.0113,0.0176,0.0255,0.0325,0.0288,0.0294,0.0272,0.0472,0.0478,0.0487,0.042,0.0422,0.0424,0.0422,0,-0.0574,-0.0588,-0.0554,-0.0545,-0.0542,-0.0464,-0.0424,-0.0349,-0.0259,-0.0172,-0.0064,0.0025,0.006,0.0114,0.0199,0.0311,0.0355,0.0313,0.0452,0.0454,0.0453,0.0503,0.0478,0.0479,0.0431,0.0433,0.0434,0,-0.0624,-0.0621,-0.0638,-0.0589,-0.058,-0.0559,-0.047,-0.0421,-0.0289,-0.0214,-0.0107,-0.0012,0.0102,0.0145,0.0316,0.029,0.0356,0.0427,0.0432,0.0449,0.048,0.0454,0.0497,0.0449,0.0448,0.0447,0.0446,0,-0.0692,-0.0674,-0.069,-0.0676,-0.0617,-0.0598,-0.0553,-0.0439,-0.0382,-0.0236,-0.0176,-0.0018,0.0057,0.0205,0.0344,0.0346,0.0518,0.0559,0.0596,0.0593,0.0602,0.0597,0.0657,0.0657,0.0657,0.0657,0.0657,0,-0.0747,-0.0751,-0.0724,-0.0729,-0.072,-0.0658,-0.0616,-0.0537,-0.0422,-0.0357,-0.0209,-0.013,0.0083,0.0213,0.034,0.049,0.0525,0.058,0.0619,0.0589,0.0583,0.0594,0.0586,0.0656,0.0656,0.0656,0.0656,0,-0.0811,-0.0802,-0.081,-0.0771,-0.0757,-0.0749,-0.067,-0.0628,-0.0521,-0.043,-0.0388,-0.0208,-0.0039,0.0142,0.0367,0.0465,0.0631,0.0658,0.0548,0.0576,0.0613,0.0605,0.0702,0.0703,0.0704,0.0704,0.0705,0,-0.0844,-0.0863,-0.085,-0.0858,-0.0841,-0.0817,-0.0796,-0.0688,-0.0634,-0.0477,-0.044,-0.0273,-0.013,0.0168,0.0392,0.0602,0.061,0.0662,0.0687,0.0602,0.063,0.0621,0.0612,0.0655,0.0655,0.0655,0.0655,0,-0.0892,-0.0894,-0.0899,-0.0919,-0.0917,-0.0903,-0.0859,-0.083,-0.0706,-0.0621,-0.0482,-0.0354,-0.0084,0.0177,0.0431,0.0551,0.0647,0.0668,0.0671,0.0656,0.0562,0.0587,0.058,0.0655,0.0655,0.0655,0.0655,0.0655,-0.092,-0.0939,-0.0953,-0.0965,-0.0974,-0.0971,-0.0953,-0.0896,-0.0818,-0.0656,-0.0536,-0.0325,-0.0085,0.0302,0.0491,0.0649,0.0652,0.0697,0.0695,0.0694,0.0699,0.0614,0.0709,0.0709,0.0709,0.0709,0.0709,0,-0.0942,-0.0963,-0.0988,-0.101,-0.1032,-0.1015,-0.0979,-0.0937,-0.0859,-0.0682,-0.0518,-0.0249,0.0046,0.0281,0.055,0.0712,0.07,0.0711,0.068,0.0679,0.0678,0.0682,0.0687,0.0688,0.0688,0.0688,0,0,-0.0955,-0.0985,-0.0998,-0.1045,-0.1065,-0.1068,-0.1047,-0.0967,-0.0835,-0.0665,-0.0488,-0.0223,0.0069,0.0252,0.0452,0.0583,0.0581,0.0577,0.0579,0.0518,0.0515,0.0655,0.0659,0,0,0,0,0]}],[{"header":{"parameterUnit":"m.s-1","parameterCategory":2,"la1":30.2991,"la2":30.254,"lo1":-89.0895,"lo2":-89.0444,"dx":0.0017,"dy":0.0017,"nx":28,"ny":28,"refTime":"2022-12-12T03:00:00:Z","depth":"4","parameterNumber":2,"parameterNumberName":"U-component_of_CURRENTS"},"data":[0,0,0,0,0,0,0,0,0,0,0,0,0,0,0,0,0,0,0,0,0,0,0,0,0,0,0,0,0,0,0,0,0,0,0,0,0,0,0,0,0,0,0,0,0,0,0,0,0,0,0,0,0,0,0,0,0,0,-0.1397,-0.1398,0,-0.1435,-0.1435,-0.1435,-0.1453,-0.1453,-0.1453,-0.1453,-0.153,-0.1532,-0.1534,0,0,0,0,0,0,0,0,0,0,0,0,0,-0.1358,-0.1358,-0.1397,-0.1398,-0.1398,-0.1435,-0.1435,-0.1435,-0.1453,-0.1453,-0.1453,-0.1453,-0.1529,-0.1531,-0.1534,0,0,0,0,0,0,0,0,0,0,0,0,0,-0.1381,-0.1358,-0.1397,-0.1412,-0.1414,-0.1435,-0.1435,-0.1436,-0.1452,-0.1453,-0.1453,-0.1453,-0.1528,-0.1531,-0.1534,-0.1548,0,0,-0.1543,-0.1544,0,0,0,0,0,0,0,0,-0.138,-0.1382,-0.141,-0.1411,-0.1414,-0.1441,-0.145,-0.1476,-0.1452,-0.1436,-0.1453,-0.1453,-0.1505,-0.1509,-0.1513,-0.1552,-0.1555,-0.1543,-0.1545,-0.1546,-0.1547,0,0,0,0,0,0,0,-0.1378,-0.1381,-0.141,-0.141,-0.1413,-0.1424,-0.1427,-0.1454,-0.1468,-0.1438,-0.1439,-0.1446,-0.1506,-0.151,-0.1515,-0.1556,-0.1543,-0.1546,-0.1547,-0.1549,-0.1655,-0.1656,0,0,0,0,0,0,-0.1376,-0.1379,-0.1409,-0.1411,-0.1399,-0.1425,-0.1428,-0.143,-0.1467,-0.1473,-0.1446,-0.1447,-0.1505,-0.1512,-0.1518,-0.1576,-0.1546,-0.1549,-0.155,-0.1654,-0.1655,-0.1656,0,0,0,0,0,0,-0.1375,-0.1378,-0.1407,-0.1398,-0.1403,-0.1425,-0.1428,-0.1431,-0.1462,-0.1474,-0.148,-0.1476,-0.1506,-0.1514,-0.153,-0.1578,-0.155,-0.1553,-0.1653,-0.1654,-0.1656,-0.1668,0,0,0,0,0,0,-0.1373,-0.1377,-0.1382,-0.1398,-0.1403,-0.1433,-0.1428,-0.1432,-0.1465,-0.1467,-0.1501,-0.1507,-0.1506,-0.1525,-0.1533,-0.1582,-0.1555,-0.1651,-0.1653,-0.1655,-0.1666,-0.167,-0.1673,0,0,0,0,0,-0.1372,-0.1377,-0.1382,-0.1386,-0.1408,-0.1434,-0.1438,-0.1453,-0.1467,-0.1482,-0.1482,-0.1507,-0.1545,-0.1527,-0.1536,-0.1587,-0.165,-0.1653,-0.1655,-0.1665,-0.1669,-0.1673,0,0,0,0,0,0,-0.1369,-0.138,-0.1386,-0.1397,-0.142,-0.1438,-0.1455,-0.1472,-0.1486,-0.1495,-0.1503,-0.1507,-0.1546,-0.156,-0.154,-0.1624,-0.1611,-0.1615,-0.1616,-0.162,-0.1624,-0.1645,-0.1557,0,0,0,0,0,-0.1369,-0.1375,-0.1394,-0.1407,-0.1421,-0.1445,-0.1461,-0.1478,-0.1492,-0.1501,-0.152,-0.1543,-0.1561,-0.1582,-0.16,-0.1639,-0.1633,-0.1684,-0.1687,-0.169,-0.1714,-0.1692,-0.1695,-0.1665,-0.1665,-0.1665,0,0,-0.1375,-0.1381,-0.1387,-0.1407,-0.1427,-0.1452,-0.1456,-0.1493,-0.1521,-0.1508,-0.1549,-0.1556,-0.1572,-0.1605,-0.1628,-0.1625,-0.1698,-0.1693,-0.1695,-0.1718,-0.1694,-0.1697,-0.17,-0.1666,-0.1666,-0.1666,0,0,-0.1385,-0.1396,-0.1404,-0.1426,-0.1461,-0.1475,-0.1494,-0.1529,-0.1551,-0.1575,-0.1579,-0.16,-0.1636,-0.1651,-0.1662,-0.1701,-0.1711,-0.173,-0.1772,-0.175,-0.1751,-0.1753,-0.1752,-0.1754,-0.1737,-0.1737,-0.1737,0,-0.1396,-0.1401,-0.1414,-0.1434,-0.1457,-0.1491,-0.1519,-0.1546,-0.1582,-0.16,-0.1593,-0.1636,-0.1657,-0.1692,-0.1713,-0.1712,-0.1705,-0.175,-0.1752,-0.1753,-0.1755,-0.1753,-0.1755,-0.1738,-0.1738,-0.1738,-0.1738,0,-0.1405,-0.1424,-0.1438,-0.1466,-0.1494,-0.1528,-0.1567,-0.1603,-0.1629,-0.1648,-0.1689,-0.1688,-0.1715,-0.1736,-0.1742,-0.1785,-0.1779,-0.1749,-0.1736,-0.1758,-0.1756,-0.1757,-0.1739,-0.1739,-0.1739,-0.1738,0,0,-0.14,-0.1435,-0.1445,-0.146,-0.1517,-0.1538,-0.1595,-0.164,-0.1667,-0.1703,-0.1723,-0.1773,-0.1781,-0.1797,-0.1809,-0.1812,-0.1823,-0.1804,-0.1802,-0.1796,-0.1791,-0.1689,-0.1681,-0.1785,-0.1785,-0.1785,-0.1785,0,-0.1408,-0.1434,-0.146,-0.1504,-0.1521,-0.1575,-0.1613,-0.1665,-0.1696,-0.1721,-0.1749,-0.1773,-0.1802,-0.1813,-0.1823,-0.1822,-0.1828,-0.1828,-0.178,-0.1779,-0.1678,-0.1679,-0.1786,-0.1786,-0.1786,-0.1786,-0.1787,0,-0.1405,-0.1422,-0.1459,-0.1504,-0.152,-0.1561,-0.1622,-0.1661,-0.1716,-0.1736,-0.1773,-0.1789,-0.184,-0.1826,-0.185,-0.1848,-0.1841,-0.1829,-0.1827,-0.1734,-0.1679,-0.176,-0.1788,-0.1788,-0.1788,-0.1788,-0.1788,0,-0.137,-0.1421,-0.1445,-0.1467,-0.1527,-0.1568,-0.1608,-0.1672,-0.1694,-0.1754,-0.1764,-0.1809,-0.1825,-0.1826,-0.1847,-0.1846,-0.1837,-0.1813,-0.1715,-0.1709,-0.1795,-0.1794,-0.1812,-0.1812,-0.1812,-0.1812,-0.1812,0,-0.1349,-0.1377,-0.1435,-0.1453,-0.1482,-0.1546,-0.1584,-0.1632,-0.1681,-0.1709,-0.1774,-0.1789,-0.1826,-0.1832,-0.1838,-0.1786,-0.1828,-0.1732,-0.1696,-0.1802,-0.1801,-0.1796,-0.1794,-0.1812,-0.1812,-0.1812,-0.1812,0,-0.1308,-0.1347,-0.1375,-0.1443,-0.1464,-0.149,-0.1557,-0.1583,-0.1648,-0.1682,-0.1706,-0.1773,-0.1796,-0.1811,-0.1807,-0.1759,-0.1722,-0.1691,-0.1828,-0.1799,-0.1617,-0.1616,-0.1576,-0.1572,-0.1569,-0.1566,-0.1564,0,-0.1285,-0.1294,-0.1353,-0.137,-0.141,-0.1454,-0.1488,-0.1555,-0.1589,-0.1672,-0.1686,-0.1729,-0.177,-0.1678,-0.1707,-0.1673,-0.1657,-0.1627,-0.1615,-0.162,-0.1591,-0.1595,-0.1598,-0.1559,-0.1558,-0.1557,-0.1556,0,-0.1235,-0.1267,-0.1288,-0.1312,-0.1353,-0.1378,-0.1442,-0.1441,-0.1536,-0.1604,-0.1627,-0.1622,-0.163,-0.162,-0.1593,-0.1576,-0.1636,-0.1594,-0.16,-0.1589,-0.16,-0.1574,-0.1581,-0.1545,-0.1547,-0.1548,-0.1549,0,-0.1191,-0.1188,-0.1212,-0.1224,-0.1279,-0.1296,-0.1332,-0.138,-0.14,-0.1513,-0.1522,-0.1574,-0.1635,-0.157,-0.1555,-0.1514,-0.1494,-0.1445,-0.1459,-0.1471,-0.1432,-0.143,-0.1295,0,0,0,0,0,-0.1117,-0.1095,-0.1119,-0.1115,-0.1186,-0.1202,-0.13,-0.1348,-0.1439,-0.1428,-0.1466,-0.148,-0.1452,-0.1471,-0.1403,-0.1491,-0.1488,-0.1405,-0.1438,-0.1485,-0.1498,-0.1459,0,0,0,0,0,0,-0.1051,-0.1065,-0.1069,-0.1035,-0.1026,-0.1071,-0.1129,-0.1202,-0.1202,-0.131,-0.1303,-0.138,-0.1369,-0.1457,-0.1363,-0.1367,-0.1359,-0.1436,-0.1432,-0.1478,-0.1489,-0.1499,-0.1464,0,0,0,0,0]},{"header":{"parameterUnit":"m.s-1","parameterCategory":2,"la1":30.2991,"la2":30.254,"lo1":-89.0895,"lo2":-89.0444,"dx":0.0017,"dy":0.0017,"nx":28,"ny":28,"refTime":"2022-12-12T03:00:00:Z","depth":"4","parameterNumber":3,"parameterNumberName":"V-component_of_CURRENTS"},"data":[0,0,0,0,0,0,0,0,0,0,0,0,0,0,0,0,0,0,0,0,0,0,0,0,0,0,0,0,0,0,0,0,0,0,0,0,0,0,0,0,0,0,0,0,0,0,0,0,0,0,0,0,0,0,0,0,0,0,-0.035,-0.035,0,-0.0339,-0.0338,-0.0338,-0.0343,-0.0343,-0.0343,-0.0344,-0.0305,-0.0304,-0.0302,0,0,0,0,0,0,0,0,0,0,0,0,0,-0.0345,-0.0345,-0.035,-0.035,-0.035,-0.0339,-0.0338,-0.0338,-0.0343,-0.0343,-0.0344,-0.0344,-0.0306,-0.0304,-0.0302,0,0,0,0,0,0,0,0,0,0,0,0,0,-0.0341,-0.0345,-0.035,-0.0351,-0.0351,-0.0339,-0.0338,-0.0338,-0.0343,-0.0343,-0.0344,-0.0344,-0.0306,-0.0304,-0.0302,-0.028,0,0,-0.0296,-0.0295,0,0,0,0,0,0,0,0,-0.0341,-0.0341,-0.0351,-0.0351,-0.0351,-0.0343,-0.0322,-0.0318,-0.0343,-0.0345,-0.0344,-0.0344,-0.0315,-0.0313,-0.0309,-0.0278,-0.0276,-0.0296,-0.0295,-0.0294,-0.0293,0,0,0,0,0,0,0,-0.0341,-0.0341,-0.0345,-0.0351,-0.0351,-0.0342,-0.0342,-0.0321,-0.0327,-0.0345,-0.0346,-0.0345,-0.0315,-0.0311,-0.0308,-0.0276,-0.0296,-0.0294,-0.0293,-0.0292,-0.027,-0.0271,0,0,0,0,0,0,-0.0345,-0.0342,-0.0345,-0.0345,-0.0348,-0.0342,-0.0342,-0.0345,-0.0327,-0.0326,-0.0345,-0.0345,-0.0314,-0.031,-0.0307,-0.0331,-0.0294,-0.0292,-0.0291,-0.027,-0.027,-0.0271,0,0,0,0,0,0,-0.0345,-0.0346,-0.0346,-0.0343,-0.0343,-0.0342,-0.0344,-0.0344,-0.0348,-0.0328,-0.0325,-0.0349,-0.0314,-0.0309,-0.0327,-0.0327,-0.0291,-0.0289,-0.0269,-0.027,-0.0271,-0.0346,0,0,0,0,0,0,-0.0345,-0.0346,-0.0358,-0.0344,-0.0343,-0.0352,-0.0344,-0.0344,-0.0346,-0.0347,-0.033,-0.0327,-0.0314,-0.0331,-0.0325,-0.0324,-0.0288,-0.0268,-0.0269,-0.027,-0.0343,-0.0349,-0.0355,0,0,0,0,0,-0.0345,-0.0362,-0.0358,-0.0359,-0.0357,-0.0353,-0.0352,-0.0352,-0.0346,-0.0355,-0.0362,-0.0328,-0.0333,-0.0331,-0.0324,-0.0322,-0.0268,-0.0269,-0.027,-0.034,-0.0348,-0.0355,0,0,0,0,0,0,-0.0367,-0.0363,-0.036,-0.0375,-0.0369,-0.0354,-0.0362,-0.0355,-0.0364,-0.0367,-0.0349,-0.0347,-0.0358,-0.0332,-0.0329,-0.0318,-0.0288,-0.0288,-0.0343,-0.035,-0.0356,-0.0353,-0.0286,0,0,0,0,0,-0.0375,-0.0387,-0.0376,-0.0389,-0.0386,-0.0372,-0.0373,-0.0369,-0.037,-0.0374,-0.0364,-0.0354,-0.0354,-0.035,-0.0342,-0.0339,-0.0296,-0.0328,-0.0335,-0.034,-0.0333,-0.032,-0.0325,-0.0276,-0.0276,-0.0276,0,0,-0.0387,-0.0386,-0.0394,-0.0394,-0.0387,-0.0394,-0.0374,-0.0376,-0.0389,-0.0366,-0.0386,-0.0378,-0.0361,-0.0371,-0.0369,-0.0351,-0.0323,-0.0342,-0.0347,-0.0336,-0.0322,-0.0327,-0.0331,-0.0277,-0.0276,-0.0276,0,0,-0.0412,-0.0413,-0.043,-0.0428,-0.0423,-0.0414,-0.0416,-0.0405,-0.0411,-0.0426,-0.0418,-0.0427,-0.0408,-0.041,-0.0406,-0.0437,-0.0362,-0.0413,-0.0437,-0.0426,-0.043,-0.0433,-0.0349,-0.0344,-0.0412,-0.0412,-0.0412,0,-0.0427,-0.0446,-0.0434,-0.0447,-0.0451,-0.0426,-0.0441,-0.0441,-0.0442,-0.0448,-0.0442,-0.0439,-0.043,-0.0446,-0.0459,-0.0451,-0.0402,-0.0415,-0.0435,-0.0438,-0.044,-0.0353,-0.0346,-0.0416,-0.0415,-0.0415,-0.0414,0,-0.0461,-0.0477,-0.0485,-0.0494,-0.0497,-0.0504,-0.0498,-0.0503,-0.0498,-0.0495,-0.0509,-0.0508,-0.05,-0.0498,-0.0489,-0.0492,-0.0436,-0.0451,-0.0419,-0.0449,-0.0355,-0.0347,-0.0421,-0.042,-0.0418,-0.0418,0,0,-0.0486,-0.0507,-0.051,-0.0524,-0.0523,-0.0527,-0.0545,-0.0553,-0.0562,-0.0561,-0.0572,-0.0583,-0.0562,-0.0555,-0.054,-0.0531,-0.0499,-0.0491,-0.0489,-0.0409,-0.0409,-0.035,-0.0334,-0.0517,-0.0517,-0.0517,-0.0324,0,-0.0516,-0.0554,-0.0554,-0.0587,-0.0604,-0.059,-0.0609,-0.0612,-0.0606,-0.0609,-0.0604,-0.0607,-0.0589,-0.0583,-0.0575,-0.0526,-0.0486,-0.0545,-0.0389,-0.0382,-0.0331,-0.0328,-0.0518,-0.0318,-0.0316,-0.0315,-0.0314,0,-0.0549,-0.0571,-0.0614,-0.0637,-0.0642,-0.0657,-0.0669,-0.0682,-0.0677,-0.067,-0.0663,-0.0641,-0.0623,-0.0611,-0.0524,-0.0557,-0.0478,-0.0434,-0.0427,-0.034,-0.031,-0.0289,-0.0298,-0.03,-0.0301,-0.0302,-0.0303,0,-0.0576,-0.0611,-0.065,-0.0659,-0.068,-0.0696,-0.0703,-0.0703,-0.0707,-0.0701,-0.0682,-0.0666,-0.0629,-0.0576,-0.0461,-0.0492,-0.0339,-0.0376,-0.0234,-0.0225,-0.0303,-0.0302,-0.0302,-0.0302,-0.0303,-0.0303,-0.0304,0,-0.0606,-0.0637,-0.0668,-0.0689,-0.0726,-0.0729,-0.0756,-0.0755,-0.0746,-0.0731,-0.071,-0.0667,-0.062,-0.052,-0.0446,-0.0287,-0.0317,-0.0217,-0.0184,-0.0332,-0.0337,-0.0294,-0.0295,-0.0296,-0.0297,-0.0299,-0.03,0,-0.0629,-0.0653,-0.0698,-0.0732,-0.0743,-0.0769,-0.0779,-0.0788,-0.0771,-0.0742,-0.0734,-0.065,-0.0515,-0.0422,-0.0294,-0.0237,-0.0124,-0.0052,-0.0145,-0.0123,-0.0013,-0.0021,0.0106,0.0109,0.0112,0.0115,0.0117,0,-0.0645,-0.0673,-0.0725,-0.0749,-0.0766,-0.0798,-0.0812,-0.0808,-0.0793,-0.0712,-0.0682,-0.0548,-0.0476,-0.0222,-0.0153,0.0021,0.003,0.0104,-0.0028,0.0003,0.0023,0.001,-0.0001,0.0121,0.0122,0.0123,0.0124,0,-0.0667,-0.069,-0.0723,-0.077,-0.0799,-0.0824,-0.0828,-0.0812,-0.0775,-0.0755,-0.0605,-0.0483,-0.0304,-0.0172,-0.001,0.0091,0.0038,0.0134,0.0127,0.0003,0.0023,0.0037,0.0023,0.0134,0.0132,0.0131,0.0131,0,-0.0679,-0.0705,-0.0747,-0.0781,-0.0823,-0.0829,-0.0833,-0.0777,-0.075,-0.0644,-0.0581,-0.0415,-0.032,-0.0126,0.0008,0.0126,0.0119,0.0111,0.0105,0.0095,0.0005,0.0023,0.0179,0,0,0,0,0,-0.0683,-0.0708,-0.0748,-0.0788,-0.0826,-0.0844,-0.0832,-0.082,-0.0766,-0.0652,-0.0613,-0.0443,-0.0219,-0.0124,0.0007,0.0023,0.0113,0.0176,0.0093,0.019,0.0178,0.0075,0,0,0,0,0,0,-0.0687,-0.073,-0.0745,-0.0782,-0.0809,-0.0841,-0.0836,-0.0798,-0.0719,-0.0645,-0.0518,-0.0434,-0.0217,-0.0296,0.0001,0.0038,-0.0001,0.0284,0.0286,0.0196,0.0186,0.0176,0.0066,0,0,0,0,0]}]]